Location: Batesville
(34.7480°N, 83.6110°W)
Time: 04:51:26
(UTC-05:00)

Hubble Space Telescope - Visible Passes

Search period start: 23 January 2018 00:00
Search period end: 02 February 2018 00:00
Orbit: 537 x 541 km, 28.5° (Epoch: 22 January)

Date Brightness Start Highest point End Pass type
(mag) Time Alt. Az. Time Alt. Az. Time Alt. Az.
23 Jan 2.9 18:53:54 10° SSW 18:56:33 16° SSE 18:58:58 11° ESE visible
23 Jan 3.6 20:33:35 10° SW 20:34:20 14° SW 20:34:20 14° SW visible
24 Jan 2.7 18:43:12 10° SSW 18:46:11 19° SSE 18:49:11 10° ESE visible
24 Jan 3.1 20:23:13 10° WSW 20:24:44 19° SW 20:24:44 19° SW visible
25 Jan 2.5 18:32:36 10° SW 18:35:51 22° SSE 18:39:06 10° ESE visible
25 Jan 2.7 20:12:53 10° WSW 20:15:07 25° SW 20:15:07 25° SW visible
26 Jan 2.4 18:22:05 10° SW 18:25:30 25° SSE 18:28:56 10° ESE visible
26 Jan 2.2 20:02:34 10° WSW 20:05:31 31° SSW 20:05:31 31° SSW visible
27 Jan 1.9 19:52:17 10° WSW 19:55:55 33° S 19:55:55 33° S visible
28 Jan 1.9 19:42:01 10° WSW 19:45:42 32° S 19:46:21 30° SSE visible
29 Jan 2.2 19:31:46 10° WSW 19:35:24 30° S 19:36:50 24° SSE visible
30 Jan 2.4 19:21:33 10° WSW 19:25:04 27° S 19:27:23 17° SE visible
31 Jan 2.6 19:11:21 10° WSW 19:14:45 25° SSW 19:17:59 11° SE visible
01 Feb 2.9 19:01:13 10° WSW 19:04:24 22° SSW 19:07:35 10° SE visible
